Estherville, IA

9:53 AM CST on February 14, 2016 (GMT -0600)
Estherville Municipal

Weather History for KEST - January, 2012

Change the Weather History Date:

Friday, January 6, 2012

  Actual Average Record
Temperature  
Mean Temperature 38 °F 16 °F  
Max Temperature 45 °F 24 °F 45 °F (2012)
Min Temperature 30 °F 7 °F -26 °F (1988)
Degree Days  
Heating Degree Days 27 50  
Month to date heating degree days 220 295  
Since 1 July heating degree days 2906 3438  
Cooling Degree Days 0 0  
Month to date cooling degree days 0 0  
Year to date cooling degree days 0 0  
Moisture  
Dew Point 29 °F    
Average Humidity 70    
Maximum Humidity 82    
Minimum Humidity 58    
Precipitation  
Precipitation 0.00 in 0.00 in 0.65 in (1969)
Month to date precipitation T 0.04  
Year to date precipitation T  
Sea Level Pressure  
Sea Level Pressure 29.85 in    
Wind  
Wind Speed 11 mph (NW)    
Max Wind Speed 20 mph    
Max Gust Speed 25 mph    
Visibility 10 miles    
Events      
T = Trace of Precipitation, MM = Missing Value Source: NWS Daily Summary

Daily Weather History Graph

Daily Weather History Graph

Search for Another Location

Airport or City:

Trip Planner

Search our weather history database for the weather conditions in past years. The results will help you decide how hot, cold, wet, or windy it might be!

Date:

Astronomy

Jan. 06, 2012 Rise Set
Actual Time 7:51 AM CST 4:58 PM CST
Civil Twilight 7:19 AM CST 5:30 PM CST
Nautical Twilight 6:43 AM CST 6:06 PM CST
Astronomical Twilight 6:08 AM CST 6:40 PM CST
Moon 2:48 PM CST (1/6) 5:33 AM CST (1/6)
Length of Visible Light 10h 10m
Length of Day
9h 06m
Waxing Gibbous, 93% of the Moon is Illuminated
Jan 6
Waxing Gibbous
Jan 9
Full
Jan 16
Last Quarter
Jan 23
New
Jan 30
First Quarter

Hourly Weather History & Observations

Time (CST) Temp. Windchill Dew Point Humidity Pressure Visibility Wind Dir Wind Speed Gust Speed Precip Events Conditions
12:52 AM 37.9 °F 30.9 °F 30.9 °F 76% 29.68 in 10.0 mi NW 10.4 mph - N/A   Clear
1:52 AM 39.0 °F 31.8 °F 30.0 °F 70% 29.68 in 10.0 mi NW 11.5 mph - N/A   Clear
2:52 AM 37.9 °F 31.5 °F 30.0 °F 73% 29.70 in 10.0 mi NW 9.2 mph - N/A   Clear
3:52 AM 37.0 °F 31.0 °F 30.0 °F 76% 29.73 in 10.0 mi NW 8.1 mph - N/A   Clear
4:52 AM 39.0 °F 33.4 °F 30.0 °F 70% 29.73 in 10.0 mi North 8.1 mph - N/A   Clear
5:52 AM 36.0 °F 31.1 °F 30.0 °F 79% 29.76 in 10.0 mi NW 5.8 mph - N/A   Clear
6:52 AM 35.1 °F 27.9 °F 28.9 °F 78% 29.78 in 10.0 mi NNW 9.2 mph - N/A   Clear
7:52 AM 34.0 °F 27.2 °F 28.9 °F 82% 29.79 in 10.0 mi NW 8.1 mph - N/A   Clear
8:52 AM 37.0 °F 28.9 °F 30.0 °F 76% 29.82 in 10.0 mi NW 12.7 mph - N/A   Clear
10:52 AM 39.9 °F 32.9 °F 30.9 °F 70% 29.87 in 10.0 mi NW 11.5 mph - N/A   Clear
11:52 AM 41.0 °F 34.7 °F 30.9 °F 67% 29.86 in 10.0 mi WNW 10.4 mph - N/A   Overcast
12:52 PM 41.0 °F 33.1 °F 30.9 °F 67% 29.85 in 10.0 mi WNW 15.0 mph - N/A   Overcast
1:52 PM 45.0 °F 37.9 °F 30.9 °F 58% 29.85 in 10.0 mi WNW 16.1 mph - N/A   Mostly Cloudy
2:52 PM 42.1 °F 36.1 °F 32.0 °F 67% 29.86 in 10.0 mi WNW 10.4 mph - N/A   Scattered Clouds
3:52 PM 43.0 °F 36.4 °F 32.0 °F 65% 29.88 in 10.0 mi West 12.7 mph - N/A   Clear
4:52 PM 37.9 °F 30.9 °F 28.9 °F 70% 29.91 in 10.0 mi WNW 10.4 mph - N/A   Clear
5:52 PM 35.1 °F 26.9 °F 28.0 °F 76% 29.93 in 10.0 mi WNW 11.5 mph - N/A   Clear
6:52 PM 36.0 °F 28.5 °F 26.1 °F 67% 29.94 in 10.0 mi West 10.4 mph - N/A   Clear
7:52 PM 36.0 °F 27.1 °F 26.1 °F 67% 29.95 in 10.0 mi WNW 13.8 mph - N/A   Clear
8:52 PM 37.0 °F 27.0 °F 25.0 °F 62% 29.95 in 10.0 mi WNW 18.4 mph - N/A   Clear
9:52 PM 36.0 °F 26.3 °F 24.1 °F 62% 29.96 in 10.0 mi WNW 16.1 mph - N/A   Clear
10:52 PM 33.1 °F 24.4 °F 24.1 °F 70% 29.98 in 10.0 mi WNW 11.5 mph - N/A   Clear
11:52 PM 30.0 °F 21.7 °F 24.1 °F 79% 29.99 in 10.0 mi WNW 9.2 mph - N/A   Clear